AD8BW Weather Reports


time (UTC)temp
C
wind
direction
speed
KPH
gust
KPH
rain 1hr
cm
rain 24hr
cm
rain mn
cm
humidity
%
barometer
mb
20260901225516 30 244 3.2 11.3 0.00 0.00 0.00 73 1013.8
20260901224516 30 181 3.2 8.0 0.00 0.00 0.00 72 1013.8
20260901223518 30 154 3.2 11.3 0.00 0.00 0.00 72 1013.8
20260901222516 30 203 3.2 8.0 0.00 0.00 0.00 72 1013.8
20260901221518 30 232 3.2 11.3 0.00 0.00 0.00 71 1013.7
20260901220516 30 158 3.2 11.3 0.00 0.00 0.00 70 1013.6
20260901215519 30 165 3.2 11.3 0.00 0.00 0.00 71 1013.6
20260901214521 30 260 3.2 11.3 0.00 0.00 0.00 70 1013.5
20260901213516 30 203 3.2 14.5 0.00 0.00 0.00 70 1013.6
20260901212521 30 180 3.2 11.3 0.00 0.00 0.00 72 1013.7
20260901211518 30 191 3.2 11.3 0.00 0.00 0.00 70 1013.7
20260901210516 30 169 6.4 19.3 0.00 0.00 0.00 69 1013.8
20260901205516 31 270 3.2 17.7 0.00 0.00 0.00 69 1013.7
20260901204513 31 211 6.4 17.7 0.00 0.00 0.00 69 1013.7
20260901203515 31 190 3.2 17.7 0.00 0.00 0.00 70 1013.8
20260901202513 30 157 3.2 14.5 0.00 0.00 0.00 70 1013.9
20260901201516 31 180 6.4 14.5 0.00 0.00 0.00 70 1013.9
20260901200513 30 151 3.2 14.5 0.00 0.00 0.00 71 1013.8
20260901195512 30 221 3.2 14.5 0.00 0.00 0.00 71 1013.9
20260901194516 30 144 6.4 14.5 0.00 0.00 0.00 72 1013.9
20260901193515 31 344 3.2 22.5 0.00 0.00 0.00 70 1014.0
20260901192512 31 280 3.2 14.5 0.00 0.00 0.00 73 1014.1
20260901191515 30 173 6.4 14.5 0.00 0.00 0.00 72 1014.1
20260901190513 31 316 3.2 19.3 0.00 0.00 0.00 68 1014.0
20260901185533 31 234 3.2 19.3 0.00 0.03 0.00 69 1014.0
20260901184519 31 338 6.4 11.3 0.00 0.03 0.00 71 1013.9
20260901183511 31 342 3.2 17.7 0.00 0.03 0.00 72 1013.9
20260901182514 31 172 6.4 17.7 0.00 0.03 0.00 71 1014.0
20260901181512 31 315 3.2 17.7 0.00 0.03 0.00 71 1013.9
20260901180511 30 186 3.2 22.5 0.00 0.03 0.00 72 1013.9
20260901175529 30 319 3.2 17.7 0.00 0.03 0.00 74 1014.0
20260901174510 30 249 6.4 19.3 0.00 0.03 0.00 74 1014.1
20260901173510 30 178 6.4 14.5 0.00 0.03 0.00 73 1014.0
20260901172512 30 195 3.2 14.5 0.00 0.03 0.00 72 1014.1
20260901171507 30 146 3.2 14.5 0.00 0.03 0.00 73 1014.1
20260901170509 29 342 3.2 11.3 0.00 0.03 0.00 76 1014.0
20260901165510 29 331 3.2 14.5 0.00 0.03 0.00 75 1014.2
20260901164509 29 244 3.2 17.7 0.00 0.03 0.00 76 1014.5
20260901163509 28 266 3.2 14.5 0.00 0.03 0.00 77 1014.5
20260901162509 28 237 3.2 14.5 0.00 0.03 0.00 78 1014.7
20260901161510 28 296 3.2 11.3 0.00 0.03 0.00 80 1014.8
20260901160503 28 308 3.2 11.3 0.00 0.03 0.00 80 1014.8
20260901155504 28 151 3.2 11.3 0.00 0.03 0.00 80 1014.8
20260901154501 27 227 3.2 14.5 0.00 0.03 0.00 80 1014.8
20260901153501 27 182 3.2 11.3 0.00 0.03 0.00 81 1014.8
20260901152503 27 184 0.0 14.5 0.00 0.03 0.00 82 1014.8
20260901151501 27 240 3.2 14.5 0.00 0.03 0.00 83 1014.9
20260901150516 27 170 3.2 8.0 0.00 0.03 0.00 83 1014.8
20260901145504 26 181 0.0 8.0 0.00 0.03 0.00 85 1014.9
20260901144503 26 189 0.0 11.3 0.00 0.03 0.00 87 1014.8
20260901143501 25 285 0.0 6.4 0.00 0.03 0.00 91 1014.9
20260901142502 24 174 0.0 11.3 0.00 0.03 0.00 93 1014.9
20260901141502 23 270 3.2 8.0 0.00 0.03 0.00 94 1014.8
20260901140504 23 200 0.0 0.0 0.00 0.03 0.00 95 1014.8
20260901135502 23 317 0.0 0.0 0.00 0.03 0.00 95 1014.8
20260901134502 23 299 0.0 6.4 0.00 0.03 0.00 95 1014.8
20260901133501 23 309 0.0 6.4 0.00 0.03 0.00 95 1015.0
20260901132504 22 183 0.0 6.4 0.00 0.03 0.00 95 1014.9
20260901131501 22 261 0.0 3.2 0.00 0.03 0.00 95 1014.8
20260901130458 22 177 3.2 8.0 0.00 0.03 0.00 95 1014.8
20260901125501 22 191 3.2 11.3 0.00 0.03 0.00 95 1014.9
20260901124455 21 190 3.2 8.0 0.00 0.03 0.00 95 1014.9
20260901123456 21 202 0.0 6.4 0.00 0.03 0.00 95 1014.8
20260901122500 21 180 0.0 0.0 0.00 0.03 0.00 94 1014.7
20260901121457 20 180 0.0 0.0 0.00 0.03 0.00 93 1014.5
20260901120457 20 180 0.0 0.0 0.00 0.03 0.00 93 1014.6
20260901115459 20 180 0.0 0.0 0.00 0.03 0.00 93 1014.5
20260901114457 20 180 0.0 0.0 0.00 0.03 0.00 93 1014.5
20260901113457 20 180 0.0 0.0 0.00 0.03 0.00 92 1014.5
20260901112456 20 180 0.0 0.0 0.00 0.03 0.00 92 1014.3
20260901111456 20 180 0.0 0.0 0.00 0.03 0.00 92 1014.4
20260901110454 20 180 0.0 0.0 0.00 0.03 0.00 92 1014.3
20260901105456 20 180 0.0 0.0 0.00 0.03 0.00 92 1014.2
20260901104453 20 180 0.0 0.0 0.00 0.03 0.00 92 1014.1
20260901103451 20 180 0.0 0.0 0.00 0.03 0.00 92 1014.1
20260901102453 20 180 0.0 0.0 0.00 0.03 0.00 92 1014.2
20260901101450 21 180 0.0 0.0 0.00 0.03 0.00 92 1013.9
20260901100447 21 180 0.0 0.0 0.00 0.03 0.00 92 1013.9
20260901095449 21 180 0.0 0.0 0.00 0.03 0.00 92 1013.9
20260901094447 21 180 0.0 0.0 0.00 0.03 0.00 92 1014.0
20260901093451 21 180 0.0 0.0 0.00 0.03 0.00 92 1014.0
20260901092453 21 180 0.0 0.0 0.00 0.03 0.00 92 1014.1
20260901091449 21 180 0.0 0.0 0.00 0.03 0.00 91 1014.0
20260901090448 21 180 0.0 0.0 0.00 0.03 0.00 91 1013.9
20260901085441 21 180 0.0 0.0 0.00 0.03 0.00 91 1013.8
20260901084442 21 180 0.0 0.0 0.00 0.03 0.00 90 1013.7
20260901083443 21 180 0.0 0.0 0.00 0.03 0.00 90 1013.6
20260901082443 21 180 0.0 0.0 0.00 0.03 0.00 90 1013.7
20260901081441 21 180 0.0 0.0 0.00 0.03 0.00 90 1013.7
20260901080442 21 180 0.0 0.0 0.00 0.03 0.00 90 1013.7
20260901075441 21 180 0.0 0.0 0.00 0.03 0.00 89 1013.7
20260901074444 22 180 0.0 0.0 0.00 0.03 0.00 89 1013.6
20260901073457 22 180 0.0 0.0 0.00 0.03 0.00 89 1013.6
20260901072443 22 180 0.0 0.0 0.00 0.03 0.00 89 1013.7
20260901071437 22 180 0.0 0.0 0.00 0.03 0.00 89 1013.7
20260901070434 22 180 0.0 0.0 0.00 0.03 0.00 88 1013.9
20260901065434 22 180 0.0 0.0 0.00 0.03 0.00 88 1013.8
20260901064437 22 180 0.0 0.0 0.00 0.03 0.00 88 1013.7
20260901063436 23 180 0.0 0.0 0.00 0.03 0.00 88 1013.7
20260901062437 23 180 0.0 0.0 0.00 0.03 0.00 88 1013.8
20260901061435 23 180 0.0 0.0 0.00 0.03 0.00 88 1013.8
20260901060438 23 180 0.0 0.0 0.00 0.03 0.00 88 1013.8
20260901055431 23 180 0.0 0.0 0.00 0.03 0.00 88 1013.9
20260901054430 23 190 0.0 3.2 0.00 0.03 0.00 88 1014.1
20260901053429 23 184 0.0 6.4 0.00 0.03 0.00 88 1014.2
20260901052426 23 186 0.0 3.2 0.00 0.03 0.00 87 1014.2
20260901051424 23 171 0.0 6.4 0.00 0.03 0.00 87 1014.2
20260901050424 23 224 0.0 3.2 0.00 0.03 0.00 87 1014.2
20260901045425 23 224 0.0 6.4 0.00 0.03 0.00 87 1014.1
20260901044427 23 208 0.0 6.4 0.00 0.03 0.00 87 1014.1
20260901043424 23 172 0.0 11.3 0.00 0.03 0.00 87 1014.1
20260901042425 23 219 3.2 14.5 0.00 0.03 0.00 87 1014.0
20260901041423 23 186 3.2 11.3 0.00 0.03 0.00 87 1013.9
20260901040424 23 213 3.2 14.5 0.00 0.03 0.00 87 1014.1
20260901035423 23 178 0.0 8.0 0.00 0.03 0.03 86 1014.1
20260901034427 23 183 3.2 14.5 0.00 0.03 0.03 86 1014.1
20260901033423 23 200 6.4 14.5 0.00 0.03 0.03 85 1014.1
20260901032421 22 212 6.4 17.7 0.00 0.03 0.03 85 1014.2
20260901031423 22 181 6.4 19.3 0.00 0.03 0.03 85 1014.2
20260901030421 22 184 3.2 11.3 0.00 0.03 0.03 85 1014.2
20260901025422 22 219 3.2 8.0 0.00 0.03 0.03 84 1014.2
20260901024422 22 215 3.2 11.3 0.00 0.03 0.03 85 1014.2
20260901023425 22 201 3.2 8.0 0.00 0.03 0.03 85 1014.1
20260901022417 22 195 3.2 8.0 0.00 0.03 0.03 85 1014.2
20260901021417 22 187 3.2 11.3 0.00 0.03 0.03 85 1014.2
20260901020413 22 194 6.4 14.5 0.00 0.03 0.03 86 1014.3
20260901015413 22 191 6.4 14.5 0.00 0.03 0.03 87 1014.4
20260901014413 22 181 6.4 17.7 0.00 0.03 0.03 87 1014.4
20260901013414 22 164 6.4 14.5 0.00 0.03 0.03 88 1014.1
20260901012417 22 182 3.2 11.3 0.00 0.03 0.03 88 1014.2
20260901011409 22 194 3.2 11.3 0.00 0.03 0.03 88 1014.0
20260901010411 22 209 3.2 8.0 0.00 0.03 0.03 88 1013.9
20260901005409 22 198 0.0 8.0 0.00 0.03 0.03 88 1013.7
20260901004412 22 202 0.0 6.4 0.00 0.03 0.03 87 1013.6
20260901003411 23 174 3.2 8.0 0.00 0.03 0.03 87 1013.4
20260901002409 23 174 3.2 11.3 0.00 0.03 0.03 87 1013.4
20260901001408 23 168 3.2 8.0 0.00 0.03 0.03 87 1013.4
20260901000413 23 174 3.2 8.0 0.00 0.03 0.03 86 1013.6
20260831235412 23 157 3.2 8.0 0.00 0.03 0.03 86 1013.6
20260831234417 23 175 3.2 8.0 0.00 0.03 0.03 86 1013.6
20260831233404 23 146 3.2 11.3 0.00 0.03 0.03 86 1013.7
20260831232405 23 162 6.4 11.3 0.00 0.03 0.03 87 1013.7
20260831231405 23 200 6.4 14.5 0.00 0.03 0.03 87 1013.9
20260831230404 23 209 3.2 8.0 0.00 0.03 0.03 87 1013.9